Tracking 19800 objects as of 24-Jul-2019
HD Live streaming from Space Station
objects crossing your sky now

DMSP 5D-3 F16 DEB

Track DMSP 5D-3 F16 DEB now!
10-day predictions


NORAD ID: 28607
Int'l Code: 2003-048H
Perigee: 655.8 km
Apogee: 674.6 km
Inclination: 98.9 °
Period: 97.9 minutes
Semi major axis: 7036 km
RCS: 0.0077 m2 (small)
Launch date: October 18, 2003
Source: United States (US)
Launch site: AIR FORCE WESTERN TEST RANGE (AFWTR)

Note: This is SATELLITE DEBRIS
aabbcc
Your satellite tracking list
Your tracking list is empty




NASA's NSSDC Master Catalog

Two Line Element Set (TLE):
1 28607U 03048H   13101.85817485  .00052860  00000-0  85591-2 0  9991
2 28607 098.9447 309.0477 0013325 257.6601 164.3075 14.70944111474707
Source of the keplerian elements: AFSPC